[[[{"header":{"parameterUnit":"kt","parameterCategory":2,"dx":1,"dy":1,"la1":30.253999710083008,"la2":30.299108505249023,"lo1":-89.0895004272461,"lo2":-89.04439544677734,"nx":28,"ny":28,"refTime":"2022-10-26T21:00:00:Z","depth":0,"parameterNumber":1,"parameterNumberName":"U-component_of_WINDS"},"data":[-6.5964,-6.6192,-6.6159,-6.6403,-6.6415,-6.6575,-6.6622,-6.6678,-6.6714,-6.69,-6.7001,-6.6989,-6.7011,-6.7122,-6.7228,-6.722,-6.7268,-6.7373,-6.7346,-6.6907,-6.6844,-6.6784,-6.6728,-6.7384,-6.7385,-6.7805,-6.7809,-6.7812,-6.5644,-6.5658,-6.5778,-6.5871,-6.5973,-6.5851,-6.5915,-6.6008,-6.6154,-6.62,-6.6297,-6.6458,-6.658,-6.6565,-6.6676,-6.6781,-6.6729,-6.6813,-6.6805,-6.6811,-6.634,-6.6281,-6.6853,-6.6853,-6.6853,-6.6852,-6.6852,-6.6852,-6.5053,-6.5192,-6.5228,-6.5357,-6.5394,-6.5457,-6.5582,-6.5564,-6.568,-6.5793,-6.5728,-6.5893,-6.5931,-6.6048,-6.6078,-6.6204,-6.6105,-6.6186,-6.6206,-6.6228,-6.6258,-6.5656,-6.6221,-6.6219,-6.6218,-6.6216,-6.6215,0,-6.461,-6.4573,-6.4685,-6.4788,-6.4879,-6.4955,-6.5019,-6.5095,-6.5001,-6.5101,-6.5241,-6.5316,-6.5464,-6.5591,-6.5687,-6.5701,-6.5585,-6.5568,-6.5624,-6.5659,-6.5678,-6.5672,-6.4907,-6.5553,-6.5547,-6.5543,-6.5539,-6.5537,-6.4012,-6.4177,-6.4198,-6.4281,-6.4307,-6.4443,-6.4517,-6.4421,-6.4504,-6.4567,-6.4693,-6.4819,-6.4915,-6.5145,-6.5121,-6.5231,-6.5176,-6.5427,-6.5192,-6.5218,-6.5181,-6.5173,-6.5189,-6.5475,-6.5483,-6.549,-6.5495,0,-6.3679,-6.3622,-6.3866,-6.3869,-6.3875,-6.4052,-6.4054,-6.4188,-6.4154,-6.4334,-6.4369,-6.4319,-6.4458,-6.4392,-6.4538,-6.45,-6.479,-6.4733,-6.4776,-6.4762,-6.4981,-6.4962,-6.5699,-6.5791,-6.5108,-6.5115,-6.512,0,-6.3147,-6.3367,-6.3268,-6.3413,-6.3653,-6.3551,-6.3792,-6.3787,-6.3818,-6.3958,-6.3814,-6.3948,-6.3842,-6.3967,-6.3911,-6.4136,-6.4163,-6.4148,-6.4131,-6.4162,-6.4165,-6.4206,-6.4175,-6.4083,-6.4079,-6.4076,-6.4073,0,-6.2633,-6.2837,-6.3071,-6.3108,-6.3134,-6.3246,-6.3261,-6.3294,-6.3367,-6.3451,-6.3497,-6.3602,-6.366,-6.3743,-6.367,-6.3514,-6.3944,-6.3713,-6.3928,-6.393,-6.4029,-6.4024,-6.4691,-6.4069,-6.4068,-6.4066,-6.4065,0,-6.2194,-6.2282,-6.263,-6.2646,-6.2704,-6.2858,-6.2954,-6.3071,-6.3116,-6.309,-6.3155,-6.3052,-6.3242,-6.3018,-6.3279,-6.3096,-6.3161,-6.3163,-6.3177,-6.3192,-6.2944,-6.3332,-6.3972,-6.4038,-6.3203,-6.3196,-6.319,0,-6.1622,-6.1957,-6.1871,-6.2204,-6.235,-6.2178,-6.2346,-6.2391,-6.237,-6.249,-6.2465,-6.2603,-6.2422,-6.2456,-6.2594,-6.2575,-6.2813,-6.2541,-6.2716,-6.2724,-6.2711,-6.3299,-6.3412,-6.3839,-6.3097,-6.3106,-6.3113,0,-6.1172,-6.12,-6.1266,-6.1303,-6.1345,-6.1466,-6.166,-6.1774,-6.1858,-6.1923,-6.2084,-6.2275,-6.2146,-6.2204,-6.2131,-6.2278,-6.2649,-6.212,-6.212,-6.2219,-6.3044,-6.315,-6.3222,-6.2567,-6.2578,-6.2587,-6.304,0,-6.0525,-6.0684,-6.0858,-6.0947,-6.1029,-6.1233,-6.1163,-6.1258,-6.1179,-6.1152,-6.1386,-6.1405,-6.1522,-6.1585,-6.1509,-6.1866,-6.1797,-6.1658,-6.1437,-6.1823,-6.1971,-6.2031,-6.1223,-6.1216,-6.121,-6.1205,0,0,-5.9993,-6.0219,-6.0119,-6.0303,-6.0367,-6.0185,-6.041,-6.045,-6.0538,-6.0585,-6.0461,-6.0735,-6.0757,-6.1049,-6.1163,-6.121,-6.1268,-6.1136,-6.1639,-6.1688,-6.1733,-6.1892,-6.1956,-6.1195,-6.1193,-6.1191,-6.1189,0,-5.9742,-5.9767,-5.999,-6.0027,-6.0079,-6.0039,-6.0093,-6.0111,-6.0105,-6.0333,-6.0181,-6.0312,-6.0535,-6.0578,-6.0629,-6.1098,-6.0977,-6.1139,-6.1415,-6.1583,-6.164,-6.1689,-6.1858,-6.1919,-6.1175,-6.1175,-6.1176,0,-5.9287,-5.9301,-5.94,-5.9535,-5.9567,-5.9721,-5.9471,-5.9645,-5.9758,-5.955,-5.978,-5.9782,-5.9834,-6.0119,-6.0244,-6.0134,-6.0716,-6.052,-6.0554,-6.0568,-6.0727,-6.0795,-6.0855,-6.0058,-6.0054,-6.0051,0,0,-5.908,-5.9227,-5.9211,-5.9476,-5.9507,-5.9451,-5.9525,-5.9454,-5.9503,-5.9524,-5.9524,-5.9578,-5.9705,-5.9792,-5.9908,-6.023,-6.0233,-6.0385,-6.0438,-6.0481,-6.0518,-6.0688,-6.0756,-6.0037,-6.0037,-6.0037,0,0,-5.8982,-5.8973,-5.8884,-5.9182,-5.9235,-5.9237,-5.9402,-5.9292,-5.9389,-5.9358,-5.9246,-5.9255,-5.952,-5.9528,-5.9354,-5.9828,-5.961,-5.965,-5.9814,-5.9879,-5.9931,-5.9924,-5.9102,0,0,0,0,0,-5.8689,-5.8973,-5.8893,-5.8932,-5.9102,-5.9282,-5.9303,-5.9216,-5.9063,-5.9196,-5.9178,-5.9042,-5.9411,-5.9254,-5.9295,-5.9491,-5.9862,-5.9893,-5.9923,-6.0208,-6.0278,-6.0336,0,0,0,0,0,0,-5.8704,-5.8752,-5.8885,-5.8901,-5.8938,-5.927,-5.8993,-5.8977,-5.9047,-5.9018,-5.905,-5.9043,-5.8973,-5.9227,-5.9266,-5.9454,-5.9089,-5.9874,-5.9901,-5.9924,-6.0232,-6.0289,-6.0337,0,0,0,0,0,-5.8715,-5.8754,-5.905,-5.8896,-5.8928,-5.8881,-5.8981,-5.8966,-5.9019,-5.8992,-5.898,-5.8947,-5.898,-5.9007,-5.9249,-5.9438,-5.9062,-5.9076,-5.9891,-5.9912,-5.9931,-6.026,0,0,0,0,0,0,-5.8723,-5.8741,-5.9054,-5.9061,-5.8782,-5.8861,-5.887,-5.8957,-5.8986,-5.8978,-5.8882,-5.8859,-5.899,-5.9008,-5.9029,-5.9438,-5.9039,-5.9054,-5.9064,-5.9907,-5.9924,-5.9938,0,0,0,0,0,0,-5.8719,-5.8748,-5.9057,-5.8918,-5.8908,-5.8842,-5.8851,-5.9044,-5.8989,-5.8874,-5.8855,-5.8872,-5.8958,-5.9011,-5.9026,-5.9332,-5.9022,-5.9037,-5.9047,-5.9053,-5.9921,-5.9933,0,0,0,0,0,0,-5.873,-5.8754,-5.8916,-5.8908,-5.8898,-5.8966,-5.9011,-5.9191,-5.8869,-5.8876,-5.8838,-5.8824,-5.8965,-5.8978,-5.9026,-5.9325,-5.933,-5.9023,-5.9033,-5.904,-5.9044,0,0,0,0,0,0,0,-5.8738,-5.8595,-5.9015,-5.89,-5.8891,-5.9122,-5.9124,-5.9126,-5.8866,-5.8854,-5.8841,-5.883,-5.8941,-5.8957,-5.8973,-5.932,0,0,-5.9022,-5.9028,0,0,0,0,0,0,0,0,-5.8582,-5.8591,-5.9015,-5.9017,-5.9018,-5.9122,-5.9124,-5.9125,-5.8864,-5.8854,-5.8844,-5.8834,-5.8945,-5.8958,-5.8971,0,0,0,0,0,0,0,0,0,0,0,0,0,0,0,-5.9015,-5.9016,0,-5.9123,-5.9124,-5.9125,-5.8863,-5.8854,-5.8846,-5.8838,-5.8949,-5.8959,-5.897,0,0,0,0,0,0,0,0,0,0,0,0,0,0,0,0,0,0,0,0,0,0,0,0,0,0,0,0,0,0,0,0,0,0,0,0,0,0,0,0,0,0,0,0,0,0,0,0,0,0,0,0,0,0,0,0,0,0,0,0,0,0,0,0,0,0,0,0,0]}],[{"header":{"parameterUnit":"kt","parameterCategory":2,"dx":1,"dy":1,"la1":30.253999710083008,"la2":30.299108505249023,"lo1":-89.0895004272461,"lo2":-89.04439544677734,"nx":28,"ny":28,"refTime":"2022-10-26T21:00:00:Z","depth":0,"parameterNumber":2,"parameterNumberName":"V-component_of_WINDS"},"data":[-8.2863,-8.3032,-8.3036,-8.3229,-8.3264,-8.3395,-8.3442,-8.3503,-8.3552,-8.3705,-8.3794,-8.3811,-8.3858,-8.3961,-8.4055,-8.406,-8.4098,-8.4156,-8.4151,-8.3896,-8.386,-8.3826,-8.3787,-8.4165,-8.4165,-8.4416,-8.4418,-8.442,-8.2672,-8.2709,-8.2814,-8.2916,-8.3004,-8.295,-8.3026,-8.3102,-8.322,-8.3281,-8.3369,-8.3503,-8.3609,-8.3637,-8.3737,-8.3812,-8.3791,-8.3839,-8.3833,-8.3841,-8.3568,-8.3526,-8.3855,-8.3855,-8.3854,-8.3854,-8.3854,-8.3854,-8.2324,-8.2426,-8.2491,-8.2603,-8.2655,-8.2723,-8.2819,-8.284,-8.294,-8.3049,-8.3031,-8.3163,-8.3223,-8.3345,-8.3385,-8.3486,-8.3433,-8.3485,-8.3498,-8.3511,-8.3525,-8.316,-8.3503,-8.3502,-8.3501,-8.3501,-8.35,0,-8.207,-8.2067,-8.2167,-8.2268,-8.235,-8.2429,-8.25,-8.2559,-8.2548,-8.2631,-8.275,-8.2818,-8.2952,-8.3062,-8.3156,-8.3188,-8.3137,-8.3133,-8.3168,-8.3179,-8.3175,-8.3177,-8.273,-8.3123,-8.3119,-8.3117,-8.3115,-8.3114,-8.1718,-8.1838,-8.1907,-8.1977,-8.2017,-8.213,-8.2197,-8.2179,-8.2251,-8.2334,-8.2423,-8.2534,-8.2622,-8.2809,-8.2829,-8.2928,-8.2904,-8.3053,-8.2918,-8.2923,-8.2904,-8.2897,-8.2907,-8.308,-8.3084,-8.3088,-8.309,0,-8.1519,-8.1525,-8.171,-8.1766,-8.1784,-8.1908,-8.1954,-8.2054,-8.2063,-8.2201,-8.2232,-8.2245,-8.2361,-8.2357,-8.2488,-8.2481,-8.2681,-8.2656,-8.2659,-8.2654,-8.2786,-8.2773,-8.3219,-8.3275,-8.2885,-8.2889,-8.2892,0,-8.122,-8.1378,-8.1376,-8.1483,-8.1656,-8.1634,-8.1805,-8.1829,-8.1882,-8.1991,-8.1935,-8.2037,-8.2016,-8.2117,-8.2108,-8.227,-8.2295,-8.2299,-8.2295,-8.2304,-8.2304,-8.234,-8.2321,-8.2283,-8.228,-8.2278,-8.2277,0,-8.0908,-8.1092,-8.1266,-8.1309,-8.1384,-8.1466,-8.15,-8.1559,-8.1625,-8.1709,-8.1751,-8.185,-8.1904,-8.198,-8.1969,-8.1877,-8.2168,-8.2039,-8.2171,-8.2172,-8.2235,-8.2232,-8.2629,-8.2274,-8.2273,-8.2272,-8.2272,0,-8.0666,-8.0756,-8.101,-8.107,-8.1119,-8.1234,-8.1331,-8.1429,-8.1495,-8.1497,-8.1563,-8.1525,-8.1668,-8.1541,-8.1736,-8.162,-8.1676,-8.1693,-8.1703,-8.1714,-8.1571,-8.1794,-8.2174,-8.2213,-8.1725,-8.1721,-8.1717,0,-8.0306,-8.0564,-8.0548,-8.0789,-8.0907,-8.0836,-8.0963,-8.1024,-8.1038,-8.1138,-8.1152,-8.1266,-8.1171,-8.1206,-8.1303,-8.1322,-8.1473,-8.1301,-8.1441,-8.1446,-8.1425,-8.1775,-8.1832,-8.2092,-8.1659,-8.1665,-8.1669,0,-8.0027,-8.012,-8.0165,-8.0211,-8.0292,-8.0391,-8.0536,-8.0646,-8.0713,-8.0789,-8.0908,-8.1069,-8.1003,-8.1062,-8.1041,-8.1143,-8.137,-8.1058,-8.1059,-8.1113,-8.163,-8.1683,-8.1727,-8.1333,-8.134,-8.1345,-8.1623,0,-7.9658,-7.9789,-7.991,-8.0017,-8.0093,-8.0245,-8.0244,-8.0323,-8.0296,-8.0308,-8.0484,-8.0534,-8.0644,-8.0693,-8.0668,-8.0903,-8.0863,-8.0791,-8.0666,-8.0896,-8.0987,-8.1025,-8.053,-8.0526,-8.0523,-8.0521,0,0,-7.9311,-7.9498,-7.9477,-7.962,-7.9683,-7.9608,-7.9769,-7.9821,-7.9929,-7.9972,-7.9903,-8.0137,-8.0181,-8.0395,-8.0467,-8.0512,-8.0553,-8.0473,-8.0787,-8.0817,-8.0844,-8.0942,-8.0981,-8.0515,-8.0514,-8.0513,-8.0512,0,-7.9176,-7.9227,-7.9389,-7.9442,-7.9521,-7.9527,-7.9565,-7.9629,-7.9644,-7.9819,-7.9753,-7.9859,-8.0048,-8.0102,-8.0154,-8.0448,-8.0391,-8.0481,-8.064,-8.0756,-8.079,-8.0819,-8.0922,-8.096,-8.0504,-8.0505,-8.0505,0,-7.89,-7.8949,-7.9028,-7.917,-7.9221,-7.9344,-7.9213,-7.935,-7.9441,-7.935,-7.9525,-7.9552,-7.9624,-7.9829,-7.992,-7.9859,-8.0243,-8.0122,-8.0142,-8.0152,-8.0263,-8.0304,-8.034,-7.9862,-7.986,-7.9858,0,0,-7.8784,-7.8906,-7.8952,-7.9141,-7.9177,-7.9188,-7.9254,-7.9235,-7.9303,-7.9331,-7.9365,-7.9431,-7.954,-7.9613,-7.9715,-7.994,-7.9952,-8.0043,-8.0074,-8.0098,-8.0122,-8.024,-8.028,-7.9849,-7.9849,-7.9849,0,0,-7.8727,-7.879,-7.8751,-7.8971,-7.9039,-7.9096,-7.921,-7.9163,-7.9256,-7.9238,-7.921,-7.9226,-7.9417,-7.9447,-7.9335,-7.967,-7.9546,-7.9573,-7.9644,-7.9682,-7.9712,-7.97,-7.9206,0,0,0,0,0,-7.859,-7.8782,-7.8746,-7.8783,-7.8962,-7.9116,-7.9138,-7.912,-7.9032,-7.9123,-7.9144,-7.9079,-7.938,-7.928,-7.9316,-7.9441,-7.9741,-7.976,-7.9779,-7.9923,-7.9963,-7.9997,0,0,0,0,0,0,-7.8604,-7.8649,-7.8741,-7.8807,-7.8846,-7.9108,-7.8956,-7.8956,-7.9022,-7.9008,-7.9077,-7.9082,-7.9068,-7.926,-7.9293,-7.9412,-7.9195,-7.9749,-7.9765,-7.978,-7.9937,-7.997,-7.9998,0,0,0,0,0,-7.8615,-7.8652,-7.8944,-7.8804,-7.8838,-7.8861,-7.8949,-7.8948,-7.8998,-7.9031,-7.9033,-7.8979,-7.9072,-7.9097,-7.928,-7.9398,-7.9172,-7.9184,-7.9759,-7.9772,-7.9784,-7.9953,0,0,0,0,0,0,-7.8624,-7.8651,-7.895,-7.896,-7.873,-7.8845,-7.8863,-7.8941,-7.9017,-7.9021,-7.893,-7.8918,-7.9077,-7.9096,-7.9116,-7.9394,-7.9154,-7.9166,-7.9174,-7.9769,-7.9779,-7.9788,0,0,0,0,0,0,-7.8631,-7.866,-7.8955,-7.8864,-7.8863,-7.8832,-7.8847,-7.8999,-7.9019,-7.8911,-7.8903,-7.8924,-7.9045,-7.9096,-7.9111,-7.9349,-7.914,-7.9151,-7.916,-7.9165,-7.9777,-7.9785,0,0,0,0,0,0,-7.8643,-7.8667,-7.8861,-7.8861,-7.886,-7.8968,-7.8965,-7.9149,-7.8943,-7.8909,-7.8924,-7.8915,-7.9047,-7.9062,-7.9108,-7.934,-7.9347,-7.914,-7.9148,-7.9154,-7.9158,0,0,0,0,0,0,0,-7.8652,-7.8493,-7.8893,-7.8858,-7.8857,-7.9051,-7.9053,-7.9056,-7.8941,-7.8933,-7.8926,-7.8919,-7.9072,-7.9085,-7.9098,-7.9333,0,0,-7.9139,-7.9145,0,0,0,0,0,0,0,0,-7.8482,-7.849,-7.8893,-7.8895,-7.8897,-7.9051,-7.9053,-7.9055,-7.894,-7.8933,-7.8927,-7.8921,-7.9076,-7.9086,-7.9097,0,0,0,0,0,0,0,0,0,0,0,0,0,0,0,-7.8893,-7.8895,0,-7.9051,-7.9053,-7.9055,-7.8939,-7.8934,-7.8929,-7.8924,-7.9079,-7.9087,-7.9096,0,0,0,0,0,0,0,0,0,0,0,0,0,0,0,0,0,0,0,0,0,0,0,0,0,0,0,0,0,0,0,0,0,0,0,0,0,0,0,0,0,0,0,0,0,0,0,0,0,0,0,0,0,0,0,0,0,0,0,0,0,0,0,0,0,0,0,0,0]}]]]